| time (UTC) | temp F | wind direction | speed MPH | gust MPH | rain 1hr in | rain 24hr in | rain mn in | humidity % | barometer mb |
| 20260906220041 | 87 | 360 | 11.0 | 22.0 | 0.00 | 0.00 | 0.00 | 17 | 1001.7 |
| 20260906214546 | 89 | 360 | 12.0 | 26.0 | 0.00 | 0.00 | 0.00 | 16 | 1001.7 |
| 20260906213037 | 89 | 360 | 18.0 | 28.0 | 0.00 | 0.00 | 0.00 | 15 | 1001.8 |
| 20260906211533 | 89 | 360 | 20.0 | 31.0 | 0.00 | 0.00 | 0.00 | 15 | 1001.8 |
| 20260906210034 | 90 | 360 | 15.0 | 34.0 | 0.00 | 0.00 | 0.00 | 15 | 1002.2 |
| 20260906204530 | 90 | 360 | 18.0 | 32.0 | 0.00 | 0.00 | 0.00 | 16 | 1002.0 |
| 20260906203029 | 90 | 360 | 16.0 | 32.0 | 0.00 | 0.00 | 0.00 | 16 | 1002.1 |
| 20260906201525 | 89 | 360 | 13.0 | 22.0 | 0.00 | 0.00 | 0.00 | 16 | 1002.5 |
| 20260906200022 | 89 | 360 | 4.0 | 11.0 | 0.00 | 0.00 | 0.00 | 19 | 1003.0 |
| 20260906194521 | 87 | 360 | 6.0 | 12.0 | 0.00 | 0.00 | 0.00 | 20 | 1003.7 |
| 20260906193020 | 86 | 360 | 8.0 | 15.0 | 0.00 | 0.00 | 0.00 | 20 | 1003.8 |
| 20260906191518 | 85 | 360 | 3.0 | 6.0 | 0.00 | 0.00 | 0.00 | 23 | 1003.9 |
| 20260906190017 | 85 | 360 | 2.0 | 6.0 | 0.00 | 0.00 | 0.00 | 23 | 1004.3 |
| 20260906184514 | 83 | 360 | 0.0 | 5.0 | 0.00 | 0.00 | 0.00 | 26 | 1004.4 |
| 20260906183024 | 81 | 360 | 1.0 | 8.0 | 0.00 | 0.00 | 0.00 | 24 | 1005.0 |
| 20260906181521 | 81 | 360 | 2.0 | 8.0 | 0.00 | 0.00 | 0.00 | 25 | 1005.4 |
| 20260906180003 | 81 | 360 | 2.0 | 6.0 | 0.00 | 0.00 | 0.00 | 27 | 1005.8 |
| 20260906174611 | 80 | 360 | 1.0 | 6.0 | 0.00 | 0.00 | 0.00 | 26 | 1006.2 |
| 20260906173103 | 78 | 360 | 2.0 | 5.0 | 0.00 | 0.00 | 0.00 | 31 | 1006.4 |
| 20260906171551 | 77 | 360 | 1.0 | 8.0 | 0.00 | 0.00 | 0.00 | 29 | 1006.9 |
| 20260906170047 | 76 | 360 | 0.0 | 5.0 | 0.00 | 0.00 | 0.00 | 30 | 1007.1 |
| 20260906164543 | 75 | 360 | 0.0 | 5.0 | 0.00 | 0.00 | 0.00 | 32 | 1007.1 |
| 20260906163052 | 74 | 360 | 2.0 | 9.0 | 0.00 | 0.00 | 0.00 | 36 | 1007.4 |
| 20260906161537 | 72 | 360 | 3.0 | 8.0 | 0.00 | 0.00 | 0.00 | 33 | 1007.5 |
| 20260906160036 | 71 | 360 | 1.0 | 6.0 | 0.00 | 0.00 | 0.00 | 35 | 1007.7 |
| 20260906154536 | 70 | 360 | 2.0 | 6.0 | 0.00 | 0.00 | 0.00 | 34 | 1007.7 |
| 20260906153035 | 68 | 360 | 0.0 | 8.0 | 0.00 | 0.00 | 0.00 | 36 | 1007.8 |
| 20260906151533 | 68 | 360 | 3.0 | 11.0 | 0.00 | 0.00 | 0.00 | 37 | 1007.9 |
| 20260906150033 | 67 | 360 | 1.0 | 10.0 | 0.00 | 0.00 | 0.00 | 39 | 1007.9 |
| 20260906144532 | 65 | 360 | 3.0 | 11.0 | 0.00 | 0.00 | 0.00 | 42 | 1008.0 |
| 20260906143031 | 64 | 360 | 6.0 | 10.0 | 0.00 | 0.00 | 0.00 | 45 | 1008.1 |
| 20260906141531 | 62 | 360 | 5.0 | 10.0 | 0.00 | 0.00 | 0.00 | 46 | 1008.0 |
| 20260906140001 | 61 | 360 | 7.0 | 12.0 | 0.00 | 0.00 | 0.00 | 45 | 1007.9 |
| 20260906134616 | 59 | 360 | 3.0 | 6.0 | 0.00 | 0.00 | 0.00 | 49 | 1008.0 |
| 20260906133101 | 57 | 360 | 4.0 | 5.0 | 0.00 | 0.00 | 0.00 | 54 | 1007.8 |
| 20260906131555 | 55 | 360 | 1.0 | 3.0 | 0.00 | 0.00 | 0.00 | 53 | 1007.8 |
| 20260906130108 | 53 | 360 | 0.0 | 3.0 | 0.00 | 0.00 | 0.00 | 53 | 1007.7 |
| 20260906124553 | 53 | 360 | 4.0 | 9.0 | 0.00 | 0.00 | 0.00 | 52 | 1007.5 |
| 20260906123045 | 57 | 360 | 4.0 | 6.0 | 0.00 | 0.00 | 0.00 | 48 | 1007.5 |
| 20260906121541 | 59 | 360 | 3.0 | 6.0 | 0.00 | 0.00 | 0.00 | 51 | 1007.2 |
| 20260906120038 | 60 | 360 | 0.0 | 4.0 | 0.00 | 0.00 | 0.00 | 50 | 1007.1 |
| 20260906114545 | 61 | 360 | 3.0 | 4.0 | 0.00 | 0.00 | 0.00 | 51 | 1006.9 |
| 20260906113035 | 61 | 360 | 0.0 | 4.0 | 0.00 | 0.00 | 0.00 | 50 | 1006.9 |
| 20260906111534 | 62 | 360 | 0.0 | 3.0 | 0.00 | 0.00 | 0.00 | 51 | 1006.9 |
| 20260906110031 | 62 | 360 | 3.0 | 8.0 | 0.00 | 0.00 | 0.00 | 48 | 1006.5 |
| 20260906104531 | 63 | 360 | 10.0 | 13.0 | 0.00 | 0.00 | 0.00 | 47 | 1006.3 |
| 20260906103026 | 63 | 360 | 11.0 | 16.0 | 0.00 | 0.00 | 0.00 | 45 | 1006.2 |
| 20260906101526 | 63 | 360 | 15.0 | 18.0 | 0.00 | 0.00 | 0.00 | 45 | 1006.1 |
| 20260906100030 | 63 | 360 | 14.0 | 19.0 | 0.00 | 0.00 | 0.00 | 45 | 1006.0 |
| 20260906094524 | 63 | 360 | 13.0 | 16.0 | 0.00 | 0.00 | 0.00 | 47 | 1006.0 |
| 20260906093051 | 60 | 360 | 10.0 | 14.0 | 0.00 | 0.00 | 0.00 | 54 | 1005.9 |
| 20260906091551 | 60 | 360 | 13.0 | 16.0 | 0.00 | 0.00 | 0.00 | 54 | 1005.8 |
| 20260906090043 | 64 | 360 | 4.0 | 6.0 | 0.00 | 0.00 | 0.00 | 44 | 1005.8 |
| 20260906084543 | 64 | 360 | 6.0 | 13.0 | 0.00 | 0.00 | 0.00 | 44 | 1005.8 |
| 20260906083042 | 64 | 360 | 12.0 | 16.0 | 0.00 | 0.00 | 0.00 | 43 | 1005.8 |
| 20260906081543 | 64 | 360 | 11.0 | 16.0 | 0.00 | 0.00 | 0.00 | 43 | 1005.7 |
| 20260906080037 | 66 | 360 | 15.0 | 21.0 | 0.00 | 0.00 | 0.00 | 41 | 1005.8 |
| 20260906074534 | 64 | 360 | 13.0 | 18.0 | 0.00 | 0.00 | 0.00 | 41 | 1005.9 |
| 20260906073030 | 65 | 360 | 9.0 | 16.0 | 0.00 | 0.00 | 0.00 | 38 | 1005.8 |
| 20260906071532 | 65 | 360 | 10.0 | 14.0 | 0.00 | 0.00 | 0.00 | 36 | 1005.8 |
| 20260906070027 | 66 | 360 | 11.0 | 16.0 | 0.00 | 0.00 | 0.00 | 34 | 1005.8 |
| 20260906064529 | 65 | 360 | 8.0 | 12.0 | 0.00 | 0.00 | 0.00 | 35 | 1005.9 |
| 20260906063025 | 65 | 360 | 9.0 | 16.0 | 0.00 | 0.00 | 0.00 | 34 | 1005.8 |
| 20260906061522 | 65 | 360 | 11.0 | 14.0 | 0.00 | 0.00 | 0.00 | 33 | 1005.7 |
| 20260906060018 | 67 | 360 | 10.0 | 13.0 | 0.00 | 0.00 | 0.00 | 31 | 1005.8 |
| 20260906054517 | 66 | 360 | 10.0 | 13.0 | 0.00 | 0.00 | 0.00 | 33 | 1005.6 |
| 20260906053016 | 67 | 360 | 3.0 | 5.0 | 0.00 | 0.00 | 0.00 | 29 | 1005.6 |
| 20260906051517 | 67 | 360 | 1.0 | 5.0 | 0.00 | 0.00 | 0.00 | 31 | 1005.7 |
| 20260906050015 | 67 | 360 | 4.0 | 9.0 | 0.00 | 0.00 | 0.00 | 31 | 1005.8 |
| 20260906044508 | 68 | 360 | 2.0 | 5.0 | 0.00 | 0.00 | 0.00 | 35 | 1005.5 |
| 20260906043008 | 69 | 360 | 2.0 | 4.0 | 0.00 | 0.00 | 0.00 | 31 | 1005.2 |
| 20260906041503 | 69 | 360 | 0.0 | 5.0 | 0.00 | 0.00 | 0.00 | 30 | 1005.0 |
| 20260906040059 | 70 | 360 | 6.0 | 9.0 | 0.00 | 0.00 | 0.00 | 33 | 1005.0 |
| 20260906034601 | 70 | 360 | 3.0 | 10.0 | 0.00 | 0.00 | 0.00 | 35 | 1004.8 |
| 20260906033053 | 72 | 360 | 5.0 | 11.0 | 0.00 | 0.00 | 0.00 | 30 | 1005.0 |
| 20260906031611 | 73 | 360 | 8.0 | 12.0 | 0.00 | 0.00 | 0.00 | 27 | 1004.8 |
| 20260906030044 | 76 | 360 | 0.0 | 3.0 | 0.00 | 0.00 | 0.00 | 28 | 1004.6 |
| 20260906024544 | 78 | 360 | 2.0 | 3.0 | 0.00 | 0.00 | 0.00 | 25 | 1004.3 |
| 20260906023045 | 79 | 360 | 0.0 | 3.0 | 0.00 | 0.00 | 0.00 | 26 | 1004.1 |
| 20260906021533 | 81 | 360 | 0.0 | 4.0 | 0.00 | 0.00 | 0.00 | 24 | 1004.0 |
| 20260906020129 | 82 | 360 | 3.0 | 8.0 | 0.00 | 0.00 | 0.00 | 20 | 1003.8 |
| 20260906014557 | 84 | 360 | 5.0 | 6.0 | 0.00 | 0.00 | 0.00 | 21 | 1003.7 |
| 20260906013052 | 86 | 360 | 3.0 | 6.0 | 0.00 | 0.00 | 0.00 | 21 | 1003.7 |
| 20260906011552 | 87 | 360 | 4.0 | 8.0 | 0.00 | 0.00 | 0.00 | 20 | 1003.7 |
| 20260906010043 | 87 | 360 | 7.0 | 14.0 | 0.00 | 0.00 | 0.00 | 19 | 1003.7 |
| 20260906004548 | 88 | 360 | 7.0 | 13.0 | 0.00 | 0.00 | 0.00 | 20 | 1003.7 |
| 20260906003048 | 89 | 360 | 6.0 | 16.0 | 0.00 | 0.00 | 0.00 | 18 | 1003.5 |
| 20260906001543 | 89 | 360 | 14.0 | 23.0 | 0.00 | 0.00 | 0.00 | 18 | 1003.4 |
| 20260906000037 | 89 | 360 | 10.0 | 17.0 | 0.00 | 0.00 | 0.00 | 19 | 1003.5 |
| 20260905234539 | 90 | 360 | 11.0 | 16.0 | 0.00 | 0.00 | 0.00 | 21 | 1003.4 |
| 20260905233046 | 90 | 360 | 9.0 | 20.0 | 0.00 | 0.00 | 0.00 | 21 | 1003.5 |
| 20260905231536 | 89 | 360 | 5.0 | 24.0 | 0.00 | 0.00 | 0.00 | 21 | 1003.5 |
| 20260905230032 | 89 | 360 | 3.0 | 16.0 | 0.00 | 0.00 | 0.00 | 22 | 1003.6 |
| 20260905224531 | 89 | 360 | 7.0 | 21.0 | 0.00 | 0.00 | 0.00 | 21 | 1003.6 |
| 20260905223029 | 88 | 360 | 4.0 | 16.0 | 0.00 | 0.00 | 0.00 | 25 | 1003.7 |
| 20260905221524 | 89 | 360 | 7.0 | 19.0 | 0.00 | 0.00 | 0.00 | 19 | 1003.8 |